Airfield :
LOGIN :

Register | Disclaimer

   EN    FR    IT 

 










Legend :    VFR   Marginal VFR   IFR   Intensive IFR   Very Intensive IFR
Visi :
Ceiling :
>= 8 km
>= 3000ft
5 to 8 km
1000 to 3000 ft
1500m to 5 km
500 to 1000 ft
800 to 1500m
200 to 500 ft
< 800m
< 200 ft
Symbols :   Thunderstorms  Fog  Heavy snow  Heavy precipitations  Wind > 20 kt
SIGMETs :     Misc.  Thunderstorms  Icing  Turbulence  Mountain Waves  Volcanic Ashes






- Airport Elevation : 256 ft
- IATA code : CFR


LFRK - Caen

CURRENT METAR :
  • 090700Z AUTO 22011KT 9999 SCT043 SCT050 03/02 Q1006 NOSIG

EXPIRED METARs :
  • 090630Z AUTO 23012KT 9999 FEW042 04/02 Q1006 NOSIG
  • 090600Z AUTO 23012KT 9999 FEW049 BKN060 04/02 Q1006
  • 090530Z AUTO 24010KT 9999 FEW037 SCT044 BKN060 04/02 Q1006
  • 090500Z AUTO 22009KT CAVOK 04/03 Q1006
  • 090430Z AUTO 22010KT CAVOK 03/02 Q1006

TAF TAF LFRK
Valid from the 09 at 06:00 until the 09 at 15:00 UTC


090500Z 0906/0915 23012KT 9999 BKN040
Met : +33 2 31 26 68 11



MET'MAP, your aeronautical weather chart ! - Copyright ORBIFLY December 2007 - Disclaimer

ORBIFLY MET'MAP TEAM :

Programming & Development : Alexandra Zaïnal
Concept & original design : Baudouin d'Aumeries
Assistance for programming : Marc-Olivier Méhu
Technical & hardware support : Manuel Goepfert

Contact : metmap@orbifly.com




SOURCES & CREDITS :

   NOAA